Climatologie pour Saint-Brevin les Pins
Jour • Résumé pour janvier 04, 2018 Système :  Anglais    Métrique   Mixte
« - 1 jour
+ 1 jour »
Jour Semaine Mois Année Personnalisé
  Maximum : Minimum : Moyenne :
Température sous abri : TemperatureC °F 10.2 °F 11.9 °F
Point de rosée : DewpointC °F 9.6 °F 11.4 °F
Humidité : Humidity % 94 % 96 %
Vitesse du vent : WindSpeedKMH mph 1.6 mph 16.2 mph
Rafale : WindSpeedGustKMH mph - -
Direction :- - West
Pression : PressurehPa in 1005.3 in -
Précipitations : 2.5 in    
Historical Graphs
 
 
Tableau de données pour janvier 04, 2018
Heure Tempé Pt rosée Pression Vent Vitesse Rafale Humidité Taux pluie (/hr) Soleil
TemperatureC °F DewpointC °F PressurehPa in Calm     Humidity % HourlyPrecipMM in SolarRadiationWatts/m^2 W/m2 Conditions
00:00 12.5 °F 12.2 °F 1011.1 in NW 11.3 mph 45.1 mph 98 % 0.0 in 0 W/m2
00:10 12.5 °F 12.2 °F 1011.1 in WSW 11.3 mph 38.6 mph 98 % 0.3 in 0 W/m2
00:15 12.5 °F 12.2 °F 1011.1 in West 30.6 mph 38.6 mph 98 % 0.3 in 0 W/m2
00:20 12.5 °F 12.0 °F 1010.7 in West 24.1 mph 37.0 mph 97 % 0.3 in 0 W/m2
00:25 12.5 °F 12.0 °F 1010.7 in WNW 25.7 mph 38.6 mph 97 % 0.3 in 0 W/m2
00:30 12.5 °F 12.2 °F 1010.7 in WNW 16.1 mph 38.6 mph 98 % 0.3 in 0 W/m2
00:35 12.5 °F 12.0 °F 1010.7 in West 20.9 mph 38.6 mph 97 % 0.3 in 0 W/m2
00:40 12.5 °F 12.2 °F 1010.7 in NW 29.0 mph 49.9 mph 98 % 0.3 in 0 W/m2
00:45 12.5 °F 12.0 °F 1010.7 in WSW 29.0 mph 49.9 mph 97 % 0.3 in 0 W/m2
00:50 12.6 °F 12.1 °F 1010.7 in WNW 12.9 mph 41.8 mph 97 % 0.3 in 0 W/m2
00:55 12.6 °F 12.2 °F 1010.7 in WNW 12.9 mph 40.2 mph 98 % 0.3 in 0 W/m2
01:00 12.6 °F 12.1 °F 1010.7 in West 20.9 mph 37.0 mph 97 % 0.3 in 0 W/m2
01:05 12.5 °F 12.0 °F 1010.7 in WNW 14.5 mph 41.8 mph 97 % 0.3 in 0 W/m2
01:10 12.5 °F 12.0 °F 1010.7 in WNW 8.0 mph 41.8 mph 97 % 0.0 in 0 W/m2
01:15 12.5 °F 12.0 °F 1010.7 in WNW 29.0 mph 41.8 mph 97 % 0.0 in 0 W/m2
01:20 12.5 °F 12.0 °F 1010.7 in WNW 24.1 mph 41.8 mph 97 % 0.0 in 0 W/m2
01:25 12.5 °F 12.0 °F 1010.7 in NW 11.3 mph 41.8 mph 97 % 0.0 in 0 W/m2
01:30 12.5 °F 12.0 °F 1010.7 in NW 16.1 mph 45.1 mph 97 % 0.0 in 0 W/m2
01:35 12.5 °F 12.0 °F 1010.7 in NW 19.3 mph 53.1 mph 97 % 0.0 in 0 W/m2
01:40 12.5 °F 12.0 °F 1010.7 in West 17.7 mph 53.1 mph 97 % 0.0 in 0 W/m2
01:45 12.5 °F 12.0 °F 1010.7 in West 24.1 mph 48.3 mph 97 % 0.0 in 0 W/m2
01:50 12.4 °F 12.0 °F 1010.7 in NW 19.3 mph 48.3 mph 97 % 0.0 in 0 W/m2
02:00 12.4 °F 12.0 °F 1010.7 in WSW 24.1 mph 38.6 mph 97 % 0.0 in 0 W/m2
02:05 12.4 °F 12.0 °F 1010.7 in WNW 19.3 mph 41.8 mph 97 % 0.0 in 0 W/m2
02:10 12.4 °F 12.0 °F 1010.7 in West 25.7 mph 41.8 mph 97 % 0.0 in 0 W/m2
02:15 12.4 °F 12.0 °F 1010.7 in West 19.3 mph 38.6 mph 97 % 0.0 in 0 W/m2
02:20 12.4 °F 12.0 °F 1010.7 in WNW 19.3 mph 38.6 mph 97 % 0.0 in 0 W/m2
02:25 12.4 °F 12.0 °F 1010.7 in NNW 20.9 mph 41.8 mph 97 % 0.0 in 0 W/m2
02:30 12.4 °F 12.1 °F 1010.7 in WNW 32.2 mph 43.4 mph 98 % 0.0 in 0 W/m2
02:35 12.4 °F 12.1 °F 1010.7 in WNW 11.3 mph 43.4 mph 98 % 0.0 in 0 W/m2
02:40 12.4 °F 12.0 °F 1010.7 in West 32.2 mph 37.0 mph 97 % 0.0 in 0 W/m2
02:45 12.4 °F 11.9 °F 1010.7 in WSW 8.0 mph 35.4 mph 97 % 0.0 in 0 W/m2
02:50 12.4 °F 12.1 °F 1010.7 in NW 24.1 mph 40.2 mph 98 % 0.0 in 0 W/m2
02:55 12.4 °F 11.9 °F 1010.7 in West 12.9 mph 40.2 mph 97 % 0.0 in 0 W/m2
03:00 12.4 °F 12.1 °F 1010.7 in NW 14.5 mph 38.6 mph 98 % 0.0 in 0 W/m2
03:05 12.4 °F 12.1 °F 1010.7 in West 17.7 mph 45.1 mph 98 % 0.0 in 0 W/m2
03:10 12.4 °F 12.1 °F 1010.7 in NW 16.1 mph 45.1 mph 98 % 0.0 in 0 W/m2
03:20 12.4 °F 12.1 °F 1011.1 in SW 6.4 mph 40.2 mph 98 % 0.0 in 0 W/m2
03:25 12.4 °F 12.1 °F 1010.7 in WSW 32.2 mph 41.8 mph 98 % 0.0 in 0 W/m2
03:30 12.4 °F 12.1 °F 1011.1 in West 20.9 mph 41.8 mph 98 % 0.0 in 0 W/m2
03:35 12.4 °F 12.1 °F 1011.1 in WNW 20.9 mph 41.8 mph 98 % 0.0 in 0 W/m2
03:40 12.4 °F 12.1 °F 1011.1 in West 16.1 mph 41.8 mph 98 % 0.0 in 0 W/m2
03:45 12.4 °F 12.1 °F 1011.1 in NW 16.1 mph 40.2 mph 98 % 0.0 in 0 W/m2
03:50 12.4 °F 12.1 °F 1011.1 in West 27.4 mph 43.4 mph 98 % 0.0 in 0 W/m2
04:00 12.3 °F 12.0 °F 1010.7 in WNW 14.5 mph 40.2 mph 98 % 0.0 in 0 W/m2
04:05 12.3 °F 12.0 °F 1011.1 in WNW 35.4 mph 40.2 mph 98 % 0.0 in 0 W/m2
04:10 12.3 °F 12.0 °F 1010.7 in West 51.5 mph 51.5 mph 98 % 0.0 in 0 W/m2
04:20 12.3 °F 12.0 °F 1010.7 in SW 9.7 mph 45.1 mph 98 % 0.0 in 0 W/m2
04:25 12.3 °F 12.0 °F 1010.7 in NW 11.3 mph 38.6 mph 98 % 0.0 in 0 W/m2
04:30 12.3 °F 12.0 °F 1010.7 in WNW 22.5 mph 38.6 mph 98 % 0.0 in 0 W/m2
04:35 12.3 °F 12.0 °F 1010.7 in West 24.1 mph 40.2 mph 98 % 0.0 in 0 W/m2
04:40 12.2 °F 11.9 °F 1010.7 in West 16.1 mph 40.2 mph 98 % 0.0 in 0 W/m2
04:45 12.2 °F 11.9 °F 1010.7 in WSW 12.9 mph 38.6 mph 98 % 0.0 in 0 W/m2
04:50 12.2 °F 11.9 °F 1010.7 in WSW 20.9 mph 38.6 mph 98 % 0.0 in 0 W/m2
04:55 12.2 °F 11.7 °F 1010.7 in West 19.3 mph 35.4 mph 97 % 0.0 in 0 W/m2
05:00 12.2 °F 11.9 °F 1010.7 in WNW 8.0 mph 45.1 mph 98 % 0.0 in 0 W/m2
05:05 12.2 °F 11.9 °F 1010.7 in WNW 9.7 mph 45.1 mph 98 % 0.0 in 0 W/m2
05:15 12.2 °F 11.9 °F 1010.7 in West 24.1 mph 40.2 mph 98 % 0.0 in 0 W/m2
05:25 12.2 °F 11.9 °F 1010.7 in West 20.9 mph 35.4 mph 98 % 0.0 in 0 W/m2
05:35 12.2 °F 11.9 °F 1010.7 in NNW 9.7 mph 38.6 mph 98 % 0.0 in 0 W/m2
05:50 12.2 °F 11.9 °F 1010.7 in WNW 14.5 mph 43.4 mph 98 % 0.0 in 0 W/m2
05:55 12.2 °F 11.9 °F 1010.7 in NW 16.1 mph 43.4 mph 98 % 0.0 in 0 W/m2
06:00 12.2 °F 11.9 °F 1010.7 in WSW 12.9 mph 33.8 mph 98 % 0.0 in 0 W/m2
06:05 12.2 °F 11.9 °F 1010.7 in West 20.9 mph 33.8 mph 98 % 0.0 in 0 W/m2
06:10 12.2 °F 11.9 °F 1010.4 in WSW 9.7 mph 30.6 mph 98 % 0.0 in 0 W/m2
06:15 12.2 °F 11.7 °F 1010.4 in West 32.2 mph 33.8 mph 97 % 0.0 in 0 W/m2
06:25 12.2 °F 11.7 °F 1010.4 in WNW 14.5 mph 32.2 mph 97 % 0.0 in 0 W/m2
06:35 12.2 °F 11.7 °F 1010.4 in WNW 24.1 mph 32.2 mph 97 % 0.0 in 0 W/m2
06:40 12.2 °F 11.7 °F 1010.4 in West 12.9 mph 32.2 mph 97 % 0.0 in 0 W/m2
06:45 12.2 °F 11.7 °F 1010.4 in West 17.7 mph 30.6 mph 97 % 0.0 in 0 W/m2
06:50 12.1 °F 11.6 °F 1010.4 in West 17.7 mph 30.6 mph 97 % 0.0 in 0 W/m2
06:55 12.2 °F 11.7 °F 1010.4 in WNW 12.9 mph 46.7 mph 97 % 0.0 in 0 W/m2
07:05 12.2 °F 11.8 °F 1010.0 in SW 24.1 mph 40.2 mph 97 % 0.3 in 0 W/m2
07:10 12.2 °F 11.9 °F 1010.4 in WNW 16.1 mph 38.6 mph 98 % 0.3 in 0 W/m2
07:15 12.2 °F 11.7 °F 1010.4 in WNW 22.5 mph 38.6 mph 97 % 0.3 in 0 W/m2
07:20 12.2 °F 11.8 °F 1010.0 in NW 14.5 mph 38.6 mph 97 % 0.3 in 0 W/m2
07:25 12.2 °F 11.9 °F 1010.0 in WNW 16.1 mph 35.4 mph 98 % 0.3 in 0 W/m2
07:30 12.2 °F 11.9 °F 1010.0 in WNW 12.9 mph 35.4 mph 98 % 0.3 in 0 W/m2
07:35 12.2 °F 11.9 °F 1010.4 in WNW 20.9 mph 38.6 mph 98 % 0.3 in 0 W/m2
07:45 12.2 °F 11.8 °F 1010.4 in SW 12.9 mph 32.2 mph 97 % 0.3 in 0 W/m2
07:50 12.2 °F 11.8 °F 1010.4 in WSW 16.1 mph 32.2 mph 97 % 0.3 in 0 W/m2
07:55 12.2 °F 11.9 °F 1010.0 in WSW 17.7 mph 37.0 mph 98 % 0.3 in 0 W/m2
08:00 12.3 °F 12.0 °F 1010.0 in SW 25.7 mph 43.4 mph 98 % 0.0 in 0 W/m2
08:05 12.2 °F 11.8 °F 1010.0 in WSW 24.1 mph 43.4 mph 97 % 0.0 in 0 W/m2
08:10 12.2 °F 11.8 °F 1010.0 in WNW 24.1 mph 40.2 mph 97 % 0.0 in 0 W/m2
08:20 12.2 °F 11.9 °F 1010.0 in WSW 11.3 mph 35.4 mph 98 % 0.0 in 0 W/m2
08:25 12.3 °F 12.0 °F 1010.0 in West 19.3 mph 33.8 mph 98 % 0.0 in 0 W/m2
08:30 12.3 °F 11.8 °F 1010.0 in West 12.9 mph 35.4 mph 97 % 0.0 in 0 W/m2
08:40 12.2 °F 11.9 °F 1009.7 in SW 16.1 mph 35.4 mph 98 % 0.0 in 0 W/m2
08:45 12.2 °F 11.8 °F 1009.7 in WNW 12.9 mph 37.0 mph 97 % 0.0 in 0 W/m2
08:55 12.3 °F 12.0 °F 1009.4 in SW 22.5 mph 37.0 mph 98 % 0.0 in 0 W/m2
09:05 12.3 °F 12.0 °F 1009.7 in SW 20.9 mph 37.0 mph 98 % 0.0 in 0 W/m2
09:10 12.3 °F 11.9 °F 1009.4 in West 16.1 mph 37.0 mph 97 % 0.0 in 7 W/m2
09:15 12.3 °F 11.9 °F 1009.4 in West 20.9 mph 35.4 mph 97 % 0.0 in 12 W/m2
09:35 12.3 °F 11.9 °F 1009.4 in SSW 11.3 mph 35.4 mph 97 % 0.0 in 12 W/m2
09:40 12.3 °F 11.8 °F 1009.4 in WSW 16.1 mph 35.4 mph 97 % 0.0 in 9 W/m2
09:45 12.3 °F 11.8 °F 1009.4 in WNW 19.3 mph 37.0 mph 97 % 0.0 in 11 W/m2
09:50 12.3 °F 11.9 °F 1009.4 in WNW 11.3 mph 40.2 mph 97 % 0.0 in 12 W/m2
10:00 12.3 °F 11.9 °F 1009.4 in WSW 24.1 mph 33.8 mph 97 % 0.0 in 12 W/m2
10:05 12.3 °F 11.9 °F 1009.4 in WSW 33.8 mph 35.4 mph 97 % 0.3 in 16 W/m2
10:10 12.4 °F 11.9 °F 1009.4 in WSW 16.1 mph 38.6 mph 97 % 0.3 in 16 W/m2
10:20 12.4 °F 12.0 °F 1009.4 in West 6.4 mph 41.8 mph 97 % 0.3 in 28 W/m2
10:25 12.4 °F 12.0 °F 1009.4 in WNW 19.3 mph 38.6 mph 97 % 0.3 in 26 W/m2
10:35 12.5 °F 12.0 °F 1009.4 in West 25.7 mph 46.7 mph 97 % 0.3 in 25 W/m2
10:40 12.5 °F 12.0 °F 1009.4 in West 9.7 mph 46.7 mph 97 % 0.3 in 28 W/m2
10:45 12.5 °F 12.0 °F 1009.4 in WNW 22.5 mph 38.6 mph 97 % 0.3 in 25 W/m2
11:00 12.6 °F 12.1 °F 1009.0 in NW 17.7 mph 33.8 mph 97 % 0.3 in 33 W/m2
11:05 12.6 °F 12.1 °F 1009.0 in WSW 19.3 mph 41.8 mph 97 % 0.0 in 30 W/m2
11:15 12.7 °F 12.2 °F 1009.0 in NNW 24.1 mph 45.1 mph 97 % 0.0 in 42 W/m2
11:20 12.7 °F 12.2 °F 1009.0 in WNW 32.2 mph 45.1 mph 97 % 0.0 in 51 W/m2
11:25 12.7 °F 12.3 °F 1009.0 in NW 11.3 mph 38.6 mph 97 % 0.0 in 42 W/m2
11:30 12.7 °F 12.3 °F 1009.0 in WSW 19.3 mph 38.6 mph 97 % 0.0 in 40 W/m2
11:35 12.7 °F 12.3 °F 1009.0 in WNW 12.9 mph 37.0 mph 97 % 0.0 in 44 W/m2
11:45 12.8 °F 12.2 °F 1009.0 in WSW 17.7 mph 45.1 mph 96 % 0.0 in 33 W/m2
11:50 12.8 °F 12.2 °F 1009.0 in WSW 33.8 mph 37.0 mph 96 % 0.0 in 30 W/m2
12:05 12.8 °F 12.2 °F 1008.7 in West 14.5 mph 35.4 mph 96 % 0.0 in 40 W/m2
12:10 12.8 °F 12.2 °F 1008.7 in WSW 25.7 mph 38.6 mph 96 % 0.0 in 44 W/m2
12:20 12.9 °F 12.3 °F 1008.7 in West 14.5 mph 41.8 mph 96 % 0.0 in 67 W/m2
12:35 13.0 °F 12.4 °F 1008.4 in West 22.5 mph 43.4 mph 96 % 0.0 in 56 W/m2
12:40 13.1 °F 12.3 °F 1008.4 in SW 14.5 mph 38.6 mph 95 % 0.0 in 62 W/m2
12:45 13.1 °F 12.3 °F 1008.4 in West 17.7 mph 40.2 mph 95 % 0.0 in 35 W/m2
13:00 13.1 °F 12.3 °F 1008.0 in SW 11.3 mph 41.8 mph 95 % 0.0 in 49 W/m2
13:05 13.1 °F 12.3 °F 1008.0 in West 40.2 mph 41.8 mph 95 % 0.0 in 47 W/m2
13:15 13.0 °F 12.1 °F 1008.0 in West 12.9 mph 46.7 mph 94 % 0.0 in 49 W/m2
13:20 13.0 °F 12.1 °F 1007.7 in West 25.7 mph 46.7 mph 94 % 0.0 in 54 W/m2
13:25 12.9 °F 12.0 °F 1007.7 in WSW 24.1 mph 45.1 mph 94 % 0.0 in 51 W/m2
13:30 12.9 °F 12.0 °F 1007.3 in West 19.3 mph 38.6 mph 94 % 0.0 in 46 W/m2
13:35 13.0 °F 12.1 °F 1007.7 in WSW 22.5 mph 41.8 mph 94 % 0.0 in 35 W/m2
13:40 12.9 °F 12.0 °F 1007.7 in West 17.7 mph 43.4 mph 94 % 0.0 in 37 W/m2
13:45 12.9 °F 12.0 °F 1007.7 in West 20.9 mph 43.4 mph 94 % 0.0 in 37 W/m2
13:50 12.9 °F 12.0 °F 1007.3 in West 19.3 mph 37.0 mph 94 % 0.0 in 49 W/m2
13:55 12.9 °F 12.0 °F 1007.3 in WNW 14.5 mph 46.7 mph 94 % 0.0 in 42 W/m2
14:00 12.9 °F 12.0 °F 1007.3 in WSW 30.6 mph 46.7 mph 94 % 0.0 in 39 W/m2
14:05 12.9 °F 12.1 °F 1007.3 in SW 19.3 mph 43.4 mph 95 % 0.0 in 39 W/m2
14:10 12.9 °F 12.1 °F 1007.0 in WSW 35.4 mph 40.2 mph 95 % 0.0 in 32 W/m2
14:15 12.9 °F 12.1 °F 1007.0 in WSW 27.4 mph 40.2 mph 95 % 0.0 in 37 W/m2
14:20 12.8 °F 12.1 °F 1007.0 in WSW 12.9 mph 46.7 mph 95 % 0.0 in 37 W/m2
14:25 12.8 °F 12.1 °F 1007.0 in SW 16.1 mph 46.7 mph 95 % 0.5 in 37 W/m2
14:30 12.8 °F 12.0 °F 1007.0 in NW 20.9 mph 43.4 mph 95 % 0.5 in 25 W/m2
14:35 12.7 °F 11.9 °F 1007.3 in WNW 12.9 mph 43.4 mph 95 % 0.5 in 9 W/m2
14:45 11.9 °F 11.0 °F 1007.3 in WNW 14.5 mph 37.0 mph 94 % 1.5 in 23 W/m2
14:50 11.6 °F 10.6 °F 1007.3 in WNW 8.0 mph 35.4 mph 94 % 1.5 in 44 W/m2
15:00 11.2 °F 10.3 °F 1007.3 in WNW 8.0 mph 22.5 mph 94 % 1.5 in 47 W/m2
15:05 11.1 °F 10.3 °F 1007.3 in NW 11.3 mph 29.0 mph 95 % 1.5 in 44 W/m2
15:10 11.1 °F 10.3 °F 1007.3 in WNW 9.7 mph 32.2 mph 95 % 1.5 in 39 W/m2
15:15 11.0 °F 10.2 °F 1007.3 in WNW 12.9 mph 32.2 mph 95 % 1.5 in 35 W/m2
15:20 10.9 °F 10.2 °F 1007.3 in West 14.5 mph 27.4 mph 95 % 1.5 in 51 W/m2
15:30 10.8 °F 10.1 °F 1007.3 in West 19.3 mph 24.1 mph 95 % 1.5 in 47 W/m2
15:35 10.8 °F 10.1 °F 1007.3 in West 17.7 mph 24.1 mph 95 % 1.3 in 56 W/m2
15:40 10.8 °F 10.1 °F 1007.3 in WNW 8.0 mph 22.5 mph 95 % 0.5 in 49 W/m2
15:45 10.8 °F 10.1 °F 1007.3 in NW 3.2 mph 27.4 mph 95 % 0.5 in 54 W/m2
15:50 10.8 °F 10.0 °F 1007.3 in West 8.0 mph 27.4 mph 95 % 0.5 in 46 W/m2
16:00 10.8 °F 10.0 °F 1007.3 in NW 8.0 mph 22.5 mph 95 % 0.5 in 37 W/m2
16:05 10.8 °F 10.0 °F 1007.3 in West 6.4 mph 22.5 mph 95 % 0.3 in 39 W/m2
16:15 10.8 °F 10.2 °F 1007.3 in WNW 4.8 mph 22.5 mph 96 % 0.3 in 35 W/m2
16:20 10.7 °F 10.1 °F 1007.3 in West 11.3 mph 19.3 mph 96 % 0.3 in 23 W/m2
16:25 10.7 °F 10.1 °F 1007.3 in West 9.7 mph 19.3 mph 96 % 0.0 in 28 W/m2
16:40 10.7 °F 10.1 °F 1007.3 in West 9.7 mph 25.7 mph 96 % 0.3 in 23 W/m2
16:55 10.6 °F 10.0 °F 1007.3 in West 4.8 mph 20.9 mph 96 % 0.3 in 25 W/m2
17:00 10.6 °F 9.9 °F 1007.3 in West 8.0 mph 20.9 mph 96 % 0.3 in 19 W/m2
17:05 10.6 °F 9.9 °F 1007.7 in West 4.8 mph 20.9 mph 96 % 0.3 in 23 W/m2
17:10 10.4 °F 9.8 °F 1007.7 in WNW 8.0 mph 17.7 mph 96 % 0.3 in 19 W/m2
17:15 10.3 °F 9.7 °F 1007.7 in WNW 9.7 mph 17.7 mph 96 % 0.3 in 14 W/m2
17:30 10.2 °F 9.6 °F 1007.3 in WSW 9.7 mph 16.1 mph 96 % 0.0 in 5 W/m2
17:35 10.2 °F 9.6 °F 1007.7 in WSW 11.3 mph 16.1 mph 96 % 0.0 in 0 W/m2
17:50 10.2 °F 9.6 °F 1008.0 in WSW 3.2 mph 19.3 mph 96 % 0.0 in 0 W/m2
18:00 10.3 °F 9.7 °F 1008.4 in WSW 14.5 mph 20.9 mph 96 % 0.0 in 0 W/m2
18:25 10.4 °F 10.0 °F 1008.0 in West 6.4 mph 20.9 mph 97 % 0.0 in 0 W/m2
18:35 10.4 °F 9.8 °F 1008.0 in WSW 9.7 mph 19.3 mph 96 % 0.0 in 0 W/m2
18:40 10.4 °F 9.8 °F 1008.0 in WNW 8.0 mph 22.5 mph 96 % 0.0 in 0 W/m2
18:50 10.3 °F 9.9 °F 1008.0 in West 6.4 mph 24.1 mph 97 % 0.0 in 0 W/m2
18:55 10.3 °F 9.9 °F 1008.0 in WNW 9.7 mph 24.1 mph 97 % 0.0 in 0 W/m2
19:05 10.3 °F 9.9 °F 1008.0 in West 11.3 mph 16.1 mph 97 % 0.0 in 0 W/m2
19:10 10.4 °F 9.9 °F 1008.0 in WSW 3.2 mph 17.7 mph 97 % 0.0 in 0 W/m2
19:20 10.6 °F 10.1 °F 1008.0 in WSW 12.9 mph 19.3 mph 97 % 0.0 in 0 W/m2
19:25 10.6 °F 10.1 °F 1008.0 in WSW 17.7 mph 19.3 mph 97 % 0.0 in 0 W/m2
19:30 10.7 °F 10.2 °F 1008.0 in SW 12.9 mph 19.3 mph 97 % 0.0 in 0 W/m2
19:35 10.7 °F 10.2 °F 1008.0 in West 8.0 mph 24.1 mph 97 % 0.0 in 0 W/m2
19:45 10.8 °F 10.3 °F 1008.0 in WSW 8.0 mph 27.4 mph 97 % 0.0 in 0 W/m2
20:00 10.8 °F 10.4 °F 1007.7 in WSW 11.3 mph 20.9 mph 97 % 0.0 in 0 W/m2
20:05 10.8 °F 10.4 °F 1008.0 in WNW 6.4 mph 22.5 mph 97 % 0.0 in 0 W/m2
20:10 10.8 °F 10.4 °F 1007.7 in West 9.7 mph 22.5 mph 97 % 0.0 in 0 W/m2
20:25 10.8 °F 10.4 °F 1007.7 in West 6.4 mph 20.9 mph 97 % 0.0 in 0 W/m2
20:30 10.8 °F 10.4 °F 1007.7 in SW 11.3 mph 20.9 mph 97 % 0.0 in 0 W/m2
20:45 10.8 °F 10.4 °F 1007.3 in WSW 6.4 mph 20.9 mph 97 % 0.0 in 0 W/m2
20:50 10.8 °F 10.4 °F 1007.3 in WSW 9.7 mph 20.9 mph 97 % 0.0 in 0 W/m2
20:55 10.8 °F 10.4 °F 1007.3 in SW 6.4 mph 22.5 mph 97 % 0.0 in 0 W/m2
21:10 10.7 °F 10.3 °F 1007.3 in WSW 6.4 mph 20.9 mph 97 % 0.0 in 0 W/m2
21:20 10.8 °F 10.3 °F 1007.3 in SSW 4.8 mph 19.3 mph 97 % 0.0 in 0 W/m2
21:25 10.8 °F 10.3 °F 1007.3 in SW 1.6 mph 19.3 mph 97 % 0.0 in 0 W/m2
21:40 10.8 °F 10.3 °F 1007.0 in SW 3.2 mph 14.5 mph 97 % 0.0 in 0 W/m2
21:45 10.7 °F 10.3 °F 1006.7 in WSW 6.4 mph 22.5 mph 97 % 0.0 in 0 W/m2
21:50 10.7 °F 10.3 °F 1006.7 in WSW 16.1 mph 22.5 mph 97 % 0.0 in 0 W/m2
21:55 10.8 °F 10.3 °F 1006.7 in WSW 14.5 mph 20.9 mph 97 % 0.0 in 0 W/m2
22:45 10.9 °F 10.5 °F 1006.3 in West 8.0 mph 25.7 mph 97 % 0.0 in 0 W/m2
23:15 11.0 °F 10.5 °F 1005.6 in SW 9.7 mph 25.7 mph 97 % 0.0 in 0 W/m2
23:20 11.0 °F 10.5 °F 1005.6 in WSW 9.7 mph 25.7 mph 97 % 0.0 in 0 W/m2
23:35 11.1 °F 10.6 °F 1005.3 in SSW 8.0 mph 29.0 mph 97 % 0.0 in 0 W/m2
23:40 11.1 °F 10.7 °F 1005.3 in WSW 4.8 mph 25.7 mph 97 % 0.0 in 0 W/m2
23:45 11.1 °F 10.7 °F 1005.3 in WSW 12.9 mph 25.7 mph 97 % 0.0 in 0 W/m2
Avec l'autorisation de Weather Underground - 1.5 mb